Location: Emporia
(38.4040°N, 96.1810°W)
Time: 16:20:00
(UTC-05:00)

ISS - Visible Passes

Search period start: 24 May 2015 00:00
Search period end: 03 June 2015 00:00
Orbit: 399 x 404 km, 51.6° (Epoch: 24 May)

Date Brightness Start Highest point End Pass type
(mag) Time Alt. Az. Time Alt. Az. Time Alt. Az.
24 May -0.3 02:29:12 16° NNE 02:29:12 16° NNE 02:30:13 10° NNE visible
25 May -0.2 03:10:10 10° NW 03:11:14 11° NNW 03:12:23 10° N visible
26 May -0.2 02:18:30 14° N 02:18:30 14° N 02:19:44 10° NNE visible
26 May -0.2 05:31:10 10° NNW 05:32:51 13° NNE 05:34:35 10° NE visible
27 May 0.1 01:26:44 11° NNE 01:26:44 11° NNE 01:26:54 10° NNE visible
27 May 0.2 04:38:45 10° N 04:39:17 10° NNE 04:39:53 10° NNE visible
28 May 0.0 02:07:23 10° NNW 02:08:01 11° NNW 02:08:51 10° N visible
28 May -0.5 05:20:32 10° NNW 05:23:05 21° NNE 05:25:40 10° ENE visible
29 May 0.0 01:15:12 13° N 01:15:12 13° N 01:16:17 10° NNE visible
29 May -0.1 04:27:41 10° NNW 04:29:34 14° NNE 04:31:30 10° ENE visible
30 May -0.3 00:22:25 15° N 00:22:25 15° N 00:23:26 10° NNE visible
30 May 0.2 03:35:04 10° N 03:35:59 11° NNE 03:36:56 10° NNE visible
30 May -1.7 05:10:03 10° NW 05:13:08 38° NNE 05:16:12 10° ESE visible
30 May -2.3 21:48:28 10° S 21:51:07 24° SE 21:53:50 10° ENE visible
30 May -1.5 23:24:29 10° W 23:27:27 32° NNW 23:30:26 10° NE visible
31 May 0.3 01:04:16 10° NNW 01:04:40 10° NNW 01:05:03 10° N visible
31 May -0.7 04:17:01 10° NNW 04:19:41 23° NNE 04:22:23 10° E visible
31 May -2.9 22:30:51 10° WSW 22:34:03 61° NW 22:37:17 10° NE visible
01 Jun 0.1 00:09:22 10° NW 00:11:02 13° NNW 00:12:40 10° NNE visible
01 Jun -0.1 03:24:06 10° NNW 03:26:09 16° NNE 03:28:15 10° ENE visible
01 Jun -3.4 04:59:42 10° NW 05:02:58 90° NNE 05:06:14 10° SE visible
01 Jun -3.4 21:37:34 10° SW 21:40:45 62° SE 21:43:59 10° ENE visible
01 Jun -0.4 23:15:03 10° WNW 23:17:26 18° NNW 23:19:48 10° NNE visible
02 Jun 0.3 02:31:21 10° N 02:32:31 12° NNE 02:33:45 10° NE visible
02 Jun -2.1 04:06:29 10° NW 04:09:37 44° NE 04:12:45 10° ESE visible
02 Jun -1.1 22:21:02 10° W 22:23:54 28° NNW 22:26:48 10° NNE visible
